Tracking 27422 objects as of 29-May-2023
HD Live streaming from Space Station
objects crossing your sky now

FLOCK 4S 25

Track FLOCK 4S 25 now!
10-day predictions
FLOCK 4S 25 is classified as:


NORAD ID: 47542
Int'l Code: 2021-006EC
Perigee: 476.7 km
Apogee: 489.7 km
Inclination: 97.4 °
Period: 94.1 minutes
Semi major axis: 6854 km
RCS: Unknown
Launch date: January 24, 2021
Source: United States (US)
Launch site: AIR FORCE EASTERN TEST RANGE (AFETR)
Your satellite tracking list
Your tracking list is empty




NASA's NSSDC Master Catalog

Two Line Element Set (TLE):
1 47542U 21006EC  23149.37980117  .00013627  00000-0  47212-3 0  9994
2 47542  97.3851 207.9228 0009515 139.2990 220.8963 15.29916736128921
Source of the keplerian elements: AFSPC